Regional Weather Roundup
Issued by NWS Cleveland, OH

Home | Current Version | Previous Version | Graphics & Text | Print | Product List | Glossary On
Versions: 1 2 3 4 5 6 7 8 9 10 11 12 13 14 15 16 17 18 19 20 21 22 23 24 25 26 27 28 29 30 31 32 33 34 35 36 37 38 39 40 41 42 43 44 45 46 47 48 49 50
000
ASUS41 KCLE 201912
RWRCLE
OHIO REGIONAL WEATHER ROUNDUP
NATIONAL WEATHER SERVICE WILMINGTON, OH
300 PM EDT FRI OCT 20 2017

NOTE: "FAIR" INDICATES FEW OR NO CLOUDS BELOW 12,000 FEET WITH NO
SIGNIFICANT WEATHER AND/OR OBSTRUCTIONS TO VISIBILITY.

OHZ001>008-015>018-024>027-034-035-043-044-202000-
   NORTHWEST OHIO

CITY           SKY/WX    TMP DP  RH WIND       PRES   REMARKS
DEFIANCE       FAIR      75  50  41 S9G17     30.19F
FINDLAY        FAIR      76  45  33 S9        30.21F
TOLEDO EXPRESS FAIR      75  50  41 S8        30.20F
TOLEDO EXEC    FAIR      74  46  36 S9        30.22F
LIMA           FAIR      75  51  43 S8        30.21F
$$

OHZ009>014-019>023-028>033-038-089-202000-
   NORTHEAST OHIO

CITY           SKY/WX    TMP DP  RH WIND       PRES   REMARKS
CLE-HOPKINS    FAIR      74  40  29 W7        30.26F
CLE-LAKEFRONT  FAIR      73  35  25 SW6       30.23F
CUY CO. ARPT   SUNNY     73  36  25 SW9       30.25F
LORAIN-ELYRIA  FAIR      73  36  25 S6        30.24F
ASHTABULA      FAIR      70  31  23 VRB3      30.25F
AKRON-CANTON   FAIR      71  35  26 CALM      30.26F
WOOSTER        FAIR      72  37  28 SW5       30.26F
MANSFIELD      FAIR      73  37  27 VRB3      30.25F
YOUNGSTOWN     FAIR      70  34  26 SE5       30.25F
$$

OHZ042-051>053-060>062-070>072-077>081-202000-
  SOUTHWEST OHIO

CITY           SKY/WX    TMP DP  RH WIND       PRES   REMARKS
CINC-COVINGTON FAIR      74  55  51 S8        30.23F
CINC-LUNKEN    FAIR      74  56  53 SE6       30.23F
HAMILTON       FAIR      75  53  46 SE3       30.23F
DAYTON         FAIR      73  54  51 SW7       30.23F
WRIGHT-PAT AFB MOSUNNY   75  51  43 SE6       30.23F
DAYTON GENERAL FAIR      73  51  46 S5        30.23F
WILMINGTON     FAIR      75  53  46 VRB6      30.23F
$$

OHZ036-037-039>041-045>050-054>059-063>069-073>076-082>088-202000-
  CENTRAL AND SOUTHEAST OHIO

CITY           SKY/WX    TMP DP  RH WIND       PRES   REMARKS
COLUMBUS       FAIR      73  41  31 CALM      30.24F
OSU AIRPORT    FAIR      72  44  36 VRB3      30.24F
BOLTON FIELD   SUNNY     73  48  40 CALM      30.25F
RICKENBACK AFB FAIR      72  39  29 E5        30.24F
NEWARK         FAIR      74  33  22 CALM      30.24F
MARION         FAIR      73  36  25 SW8       30.24F
LANCASTER      FAIR      72  42  34 E7        30.25F
ZANESVILLE     FAIR      73  42  32 CALM      30.26F
NEW PHILLY     FAIR      73  38  27 CALM      30.26F
$$




USA.gov is the U.S. government's official web portal to all federal, state and local government web resources and services.